This is the latest recevied weather packets stored in our database for station/object PE1BMM-13. If no packets are shown the sender has not sent any weather packets the latest 1 day(s).
| Time | Temp. | Humidity | Pressure | Rain* | Wind** | Luminosity | Snow |
|---|---|---|---|---|---|---|---|
| 1778007636 | 10.56° C | 75% | 1011.4 hPa | 0 mm | 0.89 m/s, 135° | - | - |
| 1778007334 | 10.56° C | 75% | 1011.4 hPa | 0 mm | 0.89 m/s, 138° | - | - |
| 1778007034 | 10.56° C | 75% | 1011.3 hPa | 0 mm | 0.89 m/s, 112° | - | - |
| 1778006734 | 11.11° C | 74% | 1011.3 hPa | 0 mm | 0.89 m/s, 78° | - | - |
| 1778006435 | 11.11° C | 74% | 1011.2 hPa | 0 mm | 0.89 m/s, 100° | - | - |
| 1778006136 | 11.11° C | 74% | 1011.2 hPa | 0 mm | 1.34 m/s, 41° | - | - |
| 1778005829 | 11.11° C | 75% | 1011.2 hPa | 0 mm | 1.34 m/s, 117° | - | - |
| 1778005523 | 11.11° C | 75% | 1011.3 hPa | 0 mm | 0.89 m/s, 127° | - | - |
| 1778005220 | 11.67° C | 76% | 1011.2 hPa | 0 mm | 0.89 m/s, 89° | - | - |
| 1778004911 | 11.67° C | 76% | 1011.2 hPa | 0 mm | 1.34 m/s, 341° | - | - |
| 1778004605 | 11.67° C | 75% | 1011.4 hPa | 0 mm | 1.34 m/s, 21° | - | - |
| 1778004299 | 11.67° C | 74% | 1011.4 hPa | 0 mm | 1.34 m/s, 77° | - | - |
| 1778004053 | 11.67° C | 74% | 1011.4 hPa | 0 mm | 1.34 m/s, 25° | - | - |
| 1778003687 | 11.67° C | 74% | 1011.4 hPa | 0 mm | 1.34 m/s, 4° | - | - |
| 1778003448 | 11.67° C | 73% | 1011.4 hPa | 0 mm | 1.34 m/s, 44° | - | - |
| 1778003075 | 11.67° C | 73% | 1011.4 hPa | 0 mm | 1.34 m/s, 182° | - | - |
| 1778002769 | 11.67° C | 73% | 1011.4 hPa | 0 mm | 1.79 m/s, 122° | - | - |
| 1778002463 | 11.67° C | 73% | 1011.3 hPa | 0 mm | 1.34 m/s, 64° | - | - |
| 1778002158 | 12.22° C | 74% | 1011.5 hPa | 0 mm | 1.34 m/s, 42° | - | - |
| 1778001851 | 12.22° C | 73% | 1011.4 hPa | 0 mm | 1.79 m/s, 302° | - | - |
| 1778001545 | 12.22° C | 73% | 1011.3 hPa | 0 mm | 1.79 m/s, 8° | - | - |
| 1778001239 | 12.22° C | 73% | 1011.3 hPa | 0 mm | 1.79 m/s, 334° | - | - |
| 1778000934 | 12.78° C | 72% | 1011.4 hPa | 0 mm | 1.79 m/s, 117° | - | - |
| 1778000714 | 12.78° C | 72% | 1011.4 hPa | 0 mm | 1.79 m/s, 337° | - | - |
| 1778000436 | 12.78° C | 71% | 1011.3 hPa | 0 mm | 1.79 m/s, 74° | - | - |
* Rain latest hour (hover to see other rain measurements)
** Current wind speed in m/s (hover to see current wind gust speed)